Theta_e
307 307 307 305 304 302 301 301 300 300 300 301 301 301 302 302 302 302 303 308 302 297 299 300 300 295 294 294 289 295 294 294 296 292 291 290 290 292 290 293 291 289 286 287 287 285 283 299 293 287 294 298 296 298
307 307 305 304 302 301 300 300 300 300 300 300 301 301 301 302 302 302 298 305 310 300 298 304 303 304 302 299 295 294 294 293 295 292 294 294 290 294 292 286 297 289 292 286 286 289 299 299 296 299 298 295 297 297
307 306 304 301 301 300 300 300 300 300 300 300 301 302 303 303 303 302 301 302 304 299 298 300 299 305 310 307 306 293 295 299 297 302 293 291 288 294 289 292 294 297 299 293 290 295 296 298 299 299 299 298 300 302
306 304 302 300 300 300 299 299 300 299 300 300 301 302 303 304 303 303 301 304 304 298 289 298 307 303 307 307 306 305 303 303 304 300 294 291 288 298 294 294 294 297 298 295 293 296 296 297 298 300 300 300 301 307
304 302 300 300 299 299 299 299 299 299 300 300 301 303 303 302 303 302 302 302 302 296 290 294 302 307 309 308 304 304 303 301 298 294 292 289 294 294 295 296 293 299 297 293 290 296 294 296 300 301 298 297 302 303
302 300 299 299 299 299 299 298 299 299 300 301 302 303 302 302 301 301 296 306 306 303 291 288 304 304 307 308 305 303 302 300 298 294 293 295 300 296 290 290 299 302 303 303 298 300 298 298 299 300 296 298 303 303
300 299 298 299 298 298 298 298 299 299 300 301 302 302 301 301 302 299 298 302 306 303 292 290 293 302 306 305 304 302 303 299 297 294 293 295 298 297 295 293 300 301 301 303 301 300 296 296 295 298 299 301 303 304
299 298 298 298 298 297 298 298 299 300 301 301 302 302 300 303 303 299 304 304 306 298 296 289 292 298 307 302 300 303 297 297 298 295 297 296 300 299 295 300 301 302 301 301 299 300 297 297 297 299 300 301 300 300
298 297 297 297 297 297 297 298 298 299 301 301 302 302 304 302 298 302 306 306 305 298 290 291 291 294 304 301 304 304 303 292 298 292 297 301 297 295 299 301 300 301 300 300 300 299 297 295 297 297 297 299 298 299
297 297 297 297 297 297 297 298 298 299 301 301 302 302 299 302 301 304 299 297 295 295 293 289 298 293 299 299 298 300 302 296 293 298 304 298 297 303 304 303 304 303 303 302 297 295 294 294 295 297 296 298 298 299
297 296 296 296 297 297 298 298 299 299 301 299 296 296 301 303 300 300 294 292 291 288 292 294 296 292 300 294 296 302 298 298 291 297 296 296 298 300 303 303 304 305 305 303 301 300 298 298 297 297 297 298 298 298
296 296 296 296 296 297 298 298 298 299 297 296 296 297 297 294 294 290 290 293 292 291 297 294 296 298 299 301 298 301 294 297 291 300 295 293 298 303 302 303 304 305 304 303 302 300 299 299 299 299 299 298 298 298
295 295 296 296 296 297 297 297 298 298 299 301 294 291 291 292 285 285 285 290 291 298 298 299 295 296 297 298 297 297 292 293 301 295 293 295 301 303 303 304 303 305 304 302 302 301 300 300 301 299 299 298 299 297
295 295 296 296 297 297 297 297 298 298 298 293 289 287 288 287 290 292 290 292 296 295 298 297 295 298 296 292 294 290 297 300 292 289 291 297 302 302 305 304 304 303 304 303 303 301 300 299 299 299 299 298 297 297
295 296 297 298 297 296 297 297 298 300 296 289 290 282 288 292 293 296 296 296 296 296 297 295 296 299 293 287 291 296 292 290 293 294 299 302 306 304 304 305 304 305 304 304 304 302 300 300 299 299 299 299 298 298
296 296 298 294 296 297 298 299 300 298 294 291 289 287 290 289 289 291 293 294 297 294 296 296 293 292 290 286 290 291 290 289 296 301 303 306 308 308 306 307 305 306 306 305 305 303 301 301 300 301 301 298 298 296
294 297 295 296 297 297 298 298 295 289 291 287 288 292 291 290 289 289 293 293 298 293 289 292 288 288 295 290 290 295 293 298 302 305 307 308 307 309 308 307 306 308 307 306 306 304 302 303 302 301 299 300 298 297
296 298 296 297 298 300 300 298 295 292 286 290 288 290 292 292 291 292 293 294 293 292 290 288 292 289 287 287 291 292 293 298 303 301 305 309 309 309 308 308 307 308 308 307 307 306 304 303 302 301 302 303 301 298
297 298 296 296 296 296 293 294 296 288 290 291 293 293 293 293 295 295 294 295 295 296 292 291 289 289 290 290 291 293 296 298 299 302 307 309 308 309 309 309 308 308 308 308 308 306 305 304 303 303 302 302 301 300
296 295 295 295 295 296 288 293 298 291 288 291 292 291 292 292 294 295 295 295 294 293 290 289 290 291 292 294 297 298 299 301 301 300 302 305 307 306 309 310 311 308 310 309 308 302 305 303 304 304 303 302 301 299
293 296 295 297 298 297 293 293 291 294 292 290 291 292 291 294 293 293 294 297 293 290 288 288 287 290 294 296 298 299 300 300 298 300 301 303 305 305 308 309 310 308 307 307 305 305 303 305 304 303 304 302 302 302
298 294 298 296 294 293 293 297 292 293 292 291 290 292 290 290 290 291 293 289 287 287 288 287 288 289 290 293 294 297 298 299 300 301 299 302 304 304 308 309 310 308 307 307 306 306 306 307 305 304 304 302 301 301
294 295 296 294 288 289 287 298 289 291 286 287 290 287 288 290 292 297 289 289 289 291 290 289 289 291 291 292 293 294 295 295 297 298 300 303 306 306 306 308 308 308 307 308 310 308 307 300 302 304 303 303 303 301
292 292 288 288 289 285 291 289 292 289 289 288 286 284 287 290 294 290 285 287 288 290 289 288 289 289 290 289 288 288 290 292 293 297 300 300 301 304 308 309 310 309 309 311 310 309 307 308 301 305 304 303 301 301
285 284 287 282 289 285 283 284 285 286 282 285 284 285 288 292 288 285 283 285 287 287 287 288 288 288 287 287 288 287 289 288 287 288 293 297 300 303 307 311 311 310 312 309 309 307 308 308 307 306 305 304 302 302
280 284 284 286 287 285 286 281 282 283 285 283 285 290 291 289 283 281 284 286 286 286 286 287 287 287 288 289 286 286 286 288 287 291 294 295 293 293 295 300 301 307 304 307 311 308 308 308 307 306 305 302 292 302
280 282 288 294 293 291 288 290 291 288 283 282 288 286 287 280 281 284 288 289 287 288 291 291 290 289 289 290 290 290 290 289 289 291 293 293 293 291 291 291 292 298 299 307 310 309 308 308 308 307 306 306 304 304
287 289 285 288 289 291 284 286 284 283 286 290 289 282 280 280 282 286 287 289 290 290 290 290 291 291 291 292 293 291 290 291 291 292 292 291 291 291 290 291 293 290 299 305 309 309 309 309 309 308 307 306 305 305
288 291 290 286 286 286 286 286 287 291 292 291 287 286 284 286 286 287 288 290 291 290 287 287 288 290 290 290 291 291 291 290 286 285 285 286 285 286 289 290 291 294 298 301 294 296 303 309 309 308 308 307 307 306
288 292 287 287 284 284 289 291 290 292 293 294 291 289 286 286 289 291 289 289 287 287 288 288 289 289 288 287 286 288 291 291 290 286 283 284 286 288 290 291 290 289 291 294 297 300 290 304 301 306 303 303 300 296
292 291 288 288 287 291 292 293 293 293 294 291 295 290 286 285 287 288 288 289 288 287 286 285 286 288 287 287 286 285 285 289 288 288 287 289 290 290 291 291 292 291 290 289 288 288 298 304 305 305 304 300 296 294
290 289 287 285 288 293 293 291 291 290 289 289 288 289 287 286 283 285 286 286 285 284 283 285 284 285 288 289 289 288 285 288 287 286 286 286 287 290 292 293 292 292 291 289 287 285 284 286 289 291 290 290 291 291
289 290 289 289 288 287 290 289 288 287 287 286 287 288 288 286 280 284 287 287 285 284 285 286 287 288 288 288 288 288 287 289 286 282 284 283 283 284 288 290 292 291 289 288 286 285 284 284 283 283 282 283 284 284
Wind_Speed
11 11 11 8 11 12 12 13 14 14 14 14 14 13 13 13 13 9 8 8 6 8 16 22 19 13 9 8 9 8 9 2 7 4 4 4 4 5 4 11 10 4 3 3 4 6 1 13 6 4 10 18 16 17
11 11 7 9 10 11 13 13 15 14 15 13 14 15 13 13 13 11 9 9 3 7 13 22 24 23 24 22 8 4 6 8 4 4 5 6 5 5 10 6 9 4 4 3 3 6 18 14 12 14 13 16 19 17
11 9 9 9 10 11 13 14 15 16 16 16 16 16 15 14 13 10 10 8 5 6 13 14 12 11 13 15 14 8 5 7 6 4 1 2 6 6 5 8 13 10 4 4 3 5 13 15 9 14 8 14 18 22
7 9 9 9 10 12 13 15 16 17 17 17 17 17 17 15 13 11 10 9 3 4 6 5 2 9 11 11 15 17 18 4 4 3 3 3 4 6 6 11 14 12 10 9 11 14 14 7 11 13 13 15 19 14
6 8 9 10 11 12 14 15 17 18 19 19 18 18 16 16 15 13 10 9 9 4 5 10 23 14 10 8 16 17 14 14 6 2 3 3 5 5 4 6 7 10 10 5 4 8 10 10 15 13 15 18 18 13
7 7 9 11 11 13 14 15 18 19 20 21 21 20 20 20 14 6 4 2 6 4 3 5 8 12 8 9 9 11 10 8 3 3 3 4 7 4 4 5 9 12 11 8 9 9 9 13 14 13 15 18 13 13
8 6 8 11 12 13 15 16 19 21 21 22 23 23 23 15 8 7 4 3 4 5 3 5 6 5 8 6 2 5 7 3 3 3 5 5 8 6 5 11 10 12 11 10 12 12 10 12 13 14 15 15 12 10
8 6 8 10 12 14 16 17 19 21 23 23 24 23 16 12 5 5 9 12 5 2 3 4 6 8 11 6 5 7 4 5 6 3 4 6 5 6 6 7 6 11 13 14 12 15 13 15 15 13 13 12 12 13
8 6 7 9 12 14 16 18 20 22 24 26 25 18 3 4 3 0 6 11 4 2 3 3 4 3 5 8 4 6 5 4 4 5 6 4 5 6 5 9 8 11 12 13 15 13 14 16 15 12 13 14 14 14
8 6 7 9 12 14 16 18 20 22 26 28 14 6 6 3 5 6 4 3 3 4 4 5 9 10 8 4 4 3 5 4 4 8 5 4 7 9 6 1 6 9 9 11 13 14 13 15 14 13 12 12 12 11
8 6 7 10 11 14 16 16 16 22 19 5 5 3 8 9 6 6 5 6 5 4 5 6 10 10 3 7 4 4 2 4 4 3 3 3 1 3 5 5 6 8 9 12 10 9 9 13 14 12 11 12 12 12
7 5 8 10 11 12 10 13 16 11 8 11 10 10 4 4 5 4 4 4 5 5 6 3 1 0 2 4 4 3 2 5 4 2 3 2 5 9 5 5 8 5 9 9 8 11 11 13 14 12 10 9 9 11
6 6 9 10 11 11 9 13 14 16 17 5 3 4 2 3 2 4 5 4 4 7 6 4 1 1 3 4 4 4 5 4 4 3 3 4 5 7 5 5 7 6 8 8 10 12 11 12 13 13 12 11 6 9
6 7 10 11 12 11 10 14 15 12 8 4 4 3 5 3 5 4 6 8 6 5 7 3 3 3 1 2 2 5 6 2 3 3 0 5 7 5 5 4 6 6 7 8 7 11 11 14 14 15 15 14 14 12
7 9 11 13 5 8 13 15 16 9 4 4 4 4 4 6 10 4 5 7 7 10 9 6 5 3 2 3 5 5 5 4 4 2 3 7 6 4 3 5 1 8 4 8 8 9 9 12 12 13 14 14 12 12
6 12 5 3 8 11 14 14 2 3 1 4 4 6 8 10 11 11 8 8 1 8 11 6 6 4 4 3 5 5 2 3 0 3 3 3 2 2 4 2 2 4 5 8 8 9 7 11 11 12 13 12 13 13
4 3 5 5 11 15 12 2 4 2 1 2 5 6 7 7 7 9 10 10 7 4 5 6 4 4 1 5 3 3 4 6 7 8 8 8 4 2 5 4 0 4 4 7 7 7 7 8 10 10 12 13 12 12
5 8 4 7 9 6 4 5 3 2 4 5 5 7 8 8 9 9 7 5 6 4 5 6 5 6 5 7 6 4 7 10 9 7 9 8 9 2 5 5 6 3 4 7 6 6 6 6 7 7 9 9 12 11
8 6 7 4 7 4 2 2 2 4 3 4 4 5 7 8 7 8 9 7 5 4 3 6 6 5 5 2 8 9 7 7 9 10 10 12 13 13 1 5 5 4 5 6 5 5 6 7 6 6 7 7 8 8
5 4 4 5 6 2 4 3 2 4 4 6 6 7 7 7 7 6 6 4 6 4 5 3 6 8 8 8 6 10 10 11 11 12 10 7 6 13 4 1 1 4 6 6 6 4 6 5 5 6 7 7 8 8
8 5 6 7 3 3 3 2 3 2 4 5 6 7 5 7 7 8 9 12 9 6 6 7 9 11 14 13 11 10 11 11 9 9 10 11 11 10 9 9 4 5 6 5 5 7 3 6 7 6 6 8 8 8
4 2 3 2 3 3 3 2 4 5 3 5 6 6 4 6 8 8 4 6 5 4 5 6 9 8 10 12 12 12 10 12 12 10 9 10 9 9 7 5 5 6 3 2 6 6 6 7 6 6 8 9 8 7
3 5 3 3 2 1 4 1 4 5 3 5 5 4 5 4 5 2 4 4 5 5 7 7 10 12 10 12 13 12 12 14 10 9 10 10 9 9 9 11 3 8 7 2 7 6 4 10 6 8 9 7 8 9
1 3 4 4 5 2 2 1 2 3 3 2 3 3 4 3 3 2 4 4 6 8 8 11 8 7 8 10 9 9 10 10 10 10 9 9 9 11 11 10 10 4 8 6 6 6 8 9 9 9 9 9 9 8
3 3 4 2 4 4 5 2 1 1 3 3 2 2 1 1 2 4 4 4 7 9 9 9 9 8 8 8 8 9 11 9 8 10 10 9 8 9 11 10 10 7 6 7 5 11 10 10 10 10 10 10 10 10
5 5 7 7 5 5 3 4 5 4 2 2 1 2 1 1 3 4 4 6 6 7 8 8 8 8 8 8 10 9 10 9 9 6 7 8 9 9 10 10 10 10 14 12 6 7 8 11 12 14 12 12 8 11
5 6 5 3 2 4 4 3 1 2 3 3 2 0 3 2 3 4 2 6 5 7 8 7 8 9 9 8 8 9 10 9 8 7 6 7 8 9 9 10 11 11 14 14 10 4 10 12 14 14 13 12 13 12
6 5 8 6 4 2 4 3 5 5 2 2 2 3 3 1 3 3 3 5 5 6 7 7 8 8 8 7 7 9 11 12 11 9 3 7 9 7 12 10 12 18 14 13 14 8 8 7 13 14 14 13 12 12
5 4 5 7 5 4 6 5 3 1 3 2 0 3 4 4 2 1 3 4 4 5 7 7 8 8 8 9 9 9 10 11 18 23 20 14 13 10 13 11 11 12 11 13 16 5 7 6 8 12 14 10 11 11
7 7 5 8 6 7 5 4 2 3 1 1 4 6 6 3 3 4 4 5 6 6 7 7 8 8 9 10 10 12 10 11 11 11 12 12 9 10 11 11 11 11 10 12 13 12 2 4 7 5 9 8 6 5
8 7 5 6 6 5 8 8 5 3 2 2 1 3 7 5 4 6 7 6 5 6 6 7 8 9 10 10 10 11 11 11 15 16 15 10 9 10 11 11 10 10 10 12 14 16 14 1 6 8 10 10 9 8
6 7 7 6 5 3 5 4 5 4 5 5 4 5 5 5 4 3 5 6 6 6 5 5 7 7 10 9 8 8 7 9 12 13 18 14 14 14 11 10 11 12 14 14 14 15 17 15 11 11 10 10 8 8
2 6 4 3 2 4 6 4 3 5 4 3 3 3 2 3 4 3 4 5 5 5 5 5 5 5 7 10 11 9 8 9 7 9 9 10 11 14 12 12 11 13 16 15 14 15 19 18 15 18 17 17 17 16
Wind_Direction
291 296 306 319 326 321 325 326 326 328 326 328 327 326 323 315 317 304 282 271 239 269 282 275 271 279 278 249 257 328 306 18 288 262 322 337 314 310 303 284 288 268 289 306 290 266 358 344 351 236 320 310 308 302
289 295 300 314 316 318 320 322 321 323 320 322 318 316 313 308 308 307 280 276 234 257 276 298 283 272 259 256 247 216 295 318 297 312 349 330 313 294 314 294 328 300 203 263 207 290 302 315 294 290 277 273 284 281
287 289 298 307 310 313 316 318 319 317 322 317 317 314 309 303 295 287 289 274 296 275 283 255 251 211 226 223 229 240 247 217 229 209 312 288 277 306 292 286 312 309 338 239 294 261 314 312 308 293 304 300 291 275
271 282 292 299 305 311 313 315 316 319 314 316 311 306 302 296 294 291 280 297 214 291 281 316 269 255 239 195 201 210 249 218 286 196 214 253 261 288 277 296 302 288 297 286 270 288 321 281 284 321 320 312 309 309
250 275 289 295 305 310 312 316 317 315 315 310 306 308 314 310 303 288 265 254 264 251 296 308 303 272 228 218 213 212 229 251 263 239 236 232 251 301 285 300 265 265 354 316 297 336 286 323 344 352 335 321 318 330
241 266 286 294 306 310 313 316 315 312 312 309 309 310 307 304 297 275 284 124 193 170 275 282 323 288 196 201 215 216 224 228 212 215 236 234 260 263 264 263 273 347 342 359 330 337 11 342 327 355 327 316 337 328
238 259 283 295 307 310 315 316 314 315 312 310 310 309 306 294 247 223 337 47 158 133 243 272 264 240 217 186 218 202 200 192 207 223 225 243 253 202 263 270 311 347 4 1 51 10 357 357 340 335 315 332 346 345
232 254 280 295 306 311 315 317 316 315 313 312 307 307 304 293 220 273 247 182 148 226 250 264 263 254 189 191 195 171 188 198 201 239 235 235 229 212 257 303 336 6 4 7 59 36 1 345 339 340 344 356 8 16
228 251 280 298 305 311 315 314 319 319 316 309 306 304 249 238 202 205 100 140 175 236 261 240 271 295 236 251 160 173 168 206 206 221 235 242 236 228 277 306 0 23 17 359 31 17 17 348 344 11 356 9 14 28
226 251 281 297 306 311 316 316 322 319 308 305 288 204 179 64 343 253 191 223 192 185 233 248 252 262 323 310 267 189 189 216 230 212 214 236 255 261 229 356 18 24 17 23 22 10 7 352 1 17 20 8 15 25
226 252 283 295 306 311 316 319 327 319 291 325 329 304 355 354 271 218 221 207 159 226 211 229 236 246 284 268 303 291 288 238 253 148 240 224 289 128 114 112 72 42 26 38 45 26 34 351 8 32 35 15 22 22
228 261 284 293 305 314 341 342 333 316 344 320 300 311 306 293 244 264 244 243 208 264 159 245 254 160 294 288 270 257 237 270 271 358 247 303 324 113 111 92 72 56 41 35 24 34 22 16 12 37 60 39 39 14
226 264 279 289 297 305 319 331 329 318 300 253 193 249 258 252 289 253 233 218 245 9 353 0 21 307 236 234 268 266 239 253 332 274 271 45 198 105 115 97 99 78 58 49 15 36 27 33 26 32 46 62 51 55
234 266 279 289 293 293 309 322 322 319 274 282 292 251 265 209 229 317 341 323 331 313 309 283 265 274 10 265 256 250 231 190 245 234 357 78 38 139 121 118 106 79 69 56 50 47 19 40 33 36 40 37 32 40
248 274 282 285 278 308 312 309 302 274 274 278 288 255 244 343 309 8 346 10 349 312 304 301 246 238 164 258 266 254 206 209 190 302 351 43 336 114 124 105 74 104 68 72 60 56 46 59 50 48 43 44 39 45
265 278 206 36 321 311 309 290 221 351 295 290 270 285 311 321 317 319 356 323 296 314 308 274 289 217 213 232 240 233 145 129 340 325 353 10 45 140 116 53 68 83 86 75 74 78 63 69 65 68 74 62 54 47
249 234 102 334 312 297 274 250 192 193 309 268 249 275 306 307 307 309 311 313 333 341 334 279 266 309 234 264 331 20 38 18 357 351 349 1 27 159 159 189 358 109 89 89 84 83 84 78 82 71 66 78 68 65
249 113 82 341 315 276 168 226 251 238 241 245 306 333 320 313 306 300 293 291 270 303 324 318 300 285 333 353 33 18 10 340 330 354 298 341 332 239 165 151 165 176 135 104 95 96 99 97 85 80 86 89 100 85
27 352 3 327 320 311 248 208 297 289 299 306 317 316 308 300 292 286 279 277 277 292 307 275 274 3 32 18 350 347 335 321 327 325 7 19 355 313 255 162 136 176 139 130 160 103 80 58 69 77 74 65 68 78
261 244 269 276 261 240 231 183 216 248 272 337 316 321 322 313 326 313 299 299 279 200 199 259 8 359 3 354 342 317 326 338 343 339 350 340 29 314 320 343 245 150 175 163 131 133 130 126 110 70 64 68 86 85
192 119 238 239 178 262 292 301 252 267 310 308 313 312 333 331 13 16 7 1 31 27 2 1 341 332 333 327 326 343 328 342 330 322 321 319 338 320 323 324 207 177 155 190 183 121 189 111 107 132 111 85 81 82
94 244 237 165 222 182 263 184 308 318 265 296 313 321 342 13 20 36 28 28 47 20 352 329 331 323 319 325 324 319 314 312 314 309 318 319 326 327 305 300 339 303 151 188 171 178 148 128 134 130 111 117 125 120
163 211 204 176 188 135 253 250 286 342 339 304 327 331 29 43 19 342 64 52 52 3 344 333 326 338 342 343 336 342 346 344 329 328 318 315 311 296 294 289 197 204 226 204 170 172 151 125 148 140 130 141 120 127
194 219 208 187 183 207 251 175 198 245 265 319 335 11 32 26 2 22 73 42 357 357 347 344 335 336 348 359 359 346 343 333 318 313 318 324 320 316 311 302 302 178 215 207 165 166 144 170 151 154 162 147 153 157
197 204 163 214 213 181 198 188 3 340 283 12 326 113 102 342 22 64 48 22 0 2 348 342 350 357 354 348 345 351 352 342 327 314 310 305 327 322 321 326 305 286 223 140 202 162 163 171 182 174 171 167 169 160
210 186 191 186 168 190 164 180 187 233 52 276 292 55 53 334 68 52 44 5 358 352 338 341 349 342 357 357 347 348 341 335 323 328 16 14 12 355 345 346 357 339 351 331 180 160 194 175 185 184 181 171 161 168
193 211 190 235 157 154 200 181 293 179 212 231 132 285 14 40 93 79 26 36 343 339 336 342 355 346 342 349 355 352 348 349 345 340 9 6 19 12 356 349 342 339 321 311 295 264 197 181 189 189 187 178 179 186
242 218 164 175 148 112 201 193 199 222 208 131 288 109 132 122 61 32 15 350 353 348 349 351 5 349 355 359 15 9 1 358 1 1 8 28 13 14 355 347 336 323 331 340 326 326 300 215 189 190 190 186 179 192
206 201 120 167 133 176 215 209 224 116 12 310 279 102 104 67 72 3 342 340 355 17 8 9 9 358 11 10 16 29 17 11 7 11 10 2 354 353 348 341 343 340 342 336 324 293 352 270 212 191 196 192 182 185
174 164 170 168 180 206 189 171 165 144 145 356 94 103 100 124 96 38 23 18 21 18 6 8 8 4 14 17 13 10 23 25 20 12 356 351 349 333 333 345 349 349 344 351 356 330 106 179 114 103 117 118 102 98
160 173 166 183 200 212 137 141 123 120 197 129 53 141 126 145 113 59 26 11 15 30 17 11 7 7 11 13 13 12 4 17 15 11 8 359 357 349 356 358 359 1 3 13 21 8 346 188 169 142 152 143 139 128
168 179 162 191 191 198 141 170 151 178 170 169 151 142 147 168 121 84 22 4 25 26 19 6 13 6 5 7 11 21 348 21 19 11 13 9 5 357 4 16 14 18 28 31 28 39 19 12 47 65 73 79 101 98
167 166 187 167 209 220 184 178 142 145 154 154 128 135 128 89 91 105 87 40 26 4 355 352 351 8 19 15 7 1 3 22 67 52 10 18 13 7 12 6 29 32 37 40 42 41 49 36 40 53 58 66 72 74